Powrót do katalogu

STARLINK-30310

AktywnyŁącznośćVLEO
NORAD 57733·PAYLOAD·🇺🇸 United States

Wystrzelony Sep 1, 2023 z Cape Canaveral Space Force Station

Loading…

Następne Przeloty (najbliższe 24 godziny)

TLE

ŚwieżeSource: CelesTrak SupGP

Epoka: Sep 15, 2026, 02:29 UTC

1 57733C 23131B   26258.10395833  .00085903  00000+0  31209-2 0  2589
2 57733  43.0007 190.2968 0001431 250.6216 200.7726 15.27435490    12

Śledź STARLINK-30310 w czasie rzeczywistym z AllMySat

Download on the App Store